This is the latest recevied weather packets stored in our database for station/object JR5YHL-13. If no packets are shown the sender has not sent any weather packets the latest 10 day(s).
| Time | Temp. | Humidity | Pressure | Rain* | Wind** | Luminosity | Snow |
|---|---|---|---|---|---|---|---|
| 1777702837 | 26.11° C | 39% | 1009.9 hPa | 0 mm | - | - | - |
| 1777702240 | 26.67° C | 37% | 1010 hPa | 0 mm | - | - | - |
| 1777701642 | 26.67° C | 41% | 1009.9 hPa | 0 mm | - | - | - |
| 1777701045 | 27.22° C | 40% | 1010.1 hPa | 0 mm | - | - | - |
| 1777700447 | 27.22° C | 40% | 1010 hPa | 0 mm | - | - | - |
| 1777699850 | 28.33° C | 34% | 1010 hPa | 0 mm | - | - | - |
| 1777699252 | 28.33° C | 29% | 1010.1 hPa | 0 mm | - | - | - |
| 1777698655 | 28.33° C | 33% | 1010.2 hPa | 0 mm | - | - | - |
| 1777698057 | 28.33° C | 31% | 1010.2 hPa | 0 mm | - | - | - |
| 1777697460 | 27.78° C | 30% | 1010.3 hPa | 0 mm | - | - | - |
| 1777696862 | 28.89° C | 31% | 1010.1 hPa | 0 mm | - | - | - |
| 1777696264 | 28.33° C | 32% | 1010.3 hPa | 0 mm | - | - | - |
| 1777695667 | 28.33° C | 33% | 1010.3 hPa | 0 mm | - | - | - |
| 1777695070 | 27.78° C | 35% | 1010.4 hPa | 0 mm | - | - | - |
| 1777694472 | 28.33° C | 38% | 1010.3 hPa | 0 mm | - | - | - |
| 1777693874 | 28.33° C | 37% | 1010.4 hPa | 0 mm | - | - | - |
| 1777693277 | 28.33° C | 37% | 1010.4 hPa | 0 mm | - | - | - |
| 1777692679 | 30° C | 36% | 1010.3 hPa | 0 mm | - | - | - |
| 1777692081 | 28.89° C | 35% | 1010.3 hPa | 0 mm | - | - | - |
| 1777691484 | 28.89° C | 36% | 1010.5 hPa | 0 mm | - | - | - |
| 1777690886 | 28.33° C | 39% | 1010.4 hPa | 0 mm | - | - | - |
| 1777690288 | 28.33° C | 35% | 1010.5 hPa | 0 mm | - | - | - |
| 1777689690 | 28.33° C | 35% | 1010.4 hPa | 0 mm | - | - | - |
| 1777689093 | 29.44° C | 34% | 1010.5 hPa | 0 mm | - | - | - |
| 1777688495 | 28.33° C | 34% | 1010.5 hPa | 0 mm | - | - | - |
* Rain latest hour (hover to see other rain measurements)
** Current wind speed in m/s (hover to see current wind gust speed)